OpenBCM V1.07b12 (Linux)

Packet Radio Mailbox

DB0FHN

[JN59NK Nuernberg]

 Login: GUEST





  
I6KZR  > KEPLER   28.01.03 23:02l 1460 Lines 39222 Bytes #999 (0) @ WW
BID : 20870_IK6WID
Read: DB0FHN GUEST
Subj: Old Istantrak Keplerians #028
Path: DB0FHN<DB0RGB<OE5XBL<OE3XSR<OK0PCC<OK0NAG<OK0PPL<RZ6HXA<SP7MGD<IK6PYS<
      I6ZLO<IK6WID
Sent: 030128/2038Z @:IK6WID.#AP.IMAR.ITA.EU #:20870 [MONTE URANO]  FBB7.00i
From: I6KZR@IK6WID.#AP.IMAR.ITA.EU
To  : KEPLER@WW


Satellite: OSCAR 7
Catalog number: 07530
Epoch time:      103027.66505767
Element set:     145 
Inclination:      101.7643 deg
RA of node:        75.6547 deg
Eccentricity:    0.0012307
Arg of perigee:   120.3533 deg
Mean anomaly:     239.8754 deg
Mean motion:   12.53563997 rev/day
Decay rate:   -2.9000E-007 rev/day^2
Epoch rev:           29044
Checksum:              306

Satellite: GOES 2
Catalog number: 10061
Epoch time:      103019.51073537
Element set:     61 
Inclination:       14.1247 deg
RA of node:        13.6744 deg
Eccentricity:    0.0013638
Arg of perigee:   197.1605 deg
Mean anomaly:     162.8376 deg
Mean motion:    0.99393429 rev/day
Decay rate:    5.2000E-007 rev/day^2
Epoch rev:            3853
Checksum:              277

Satellite: GOES 3
Catalog number: 10953
Epoch time:      103026.99833063
Element set:     904 
Inclination:       13.3989 deg
RA of node:        17.4133 deg
Eccentricity:    0.0005541
Arg of perigee:   336.0100 deg
Mean anomaly:      23.9898 deg
Mean motion:    1.00278729 rev/day
Decay rate:   -1.0200E-006 rev/day^2
Epoch rev:            4327
Checksum:              276

Satellite: GOES 6
Catalog number: 14050
Epoch time:      103027.11464578
Element set:     416 
Inclination:       10.3710 deg
RA of node:        35.6267 deg
Eccentricity:    0.0003104
Arg of perigee:   351.0361 deg
Mean anomaly:       9.0291 deg
Mean motion:    1.00295784 rev/day
Decay rate:    4.4000E-007 rev/day^2
Epoch rev:           13041
Checksum:              233

Satellite: OSCAR 10
Catalog number: 14129
Epoch time:      103022.69371816
Element set:     912 
Inclination:       25.8918 deg
RA of node:       168.7550 deg
Eccentricity:    0.6038640
Arg of perigee:   321.4060 deg
Mean anomaly:       7.9531 deg
Mean motion:    2.05867100 rev/day
Decay rate:    2.2900E-006 rev/day^2
Epoch rev:           11951
Checksum:              280

Satellite: OSCAR 11 (UoSA
Catalog number: 14781
Epoch time:      103028.21756007
Element set:     55 
Inclination:       98.1142 deg
RA of node:         1.9834 deg
Eccentricity:    0.0008231
Arg of perigee:   282.6186 deg
Mean anomaly:      77.4102 deg
Mean motion:   14.77930392 rev/day
Decay rate:    1.4229E-005 rev/day^2
Epoch rev:            1308
Checksum:              390

Satellite: NOAA 10
Catalog number: 16969
Epoch time:      103027.95327162
Element set:     649 
Inclination:       98.7275 deg
RA of node:        22.1116 deg
Eccentricity:    0.0012742
Arg of perigee:   146.3354 deg
Mean anomaly:     213.8643 deg
Mean motion:   14.27055018 rev/day
Decay rate:    1.3500E-006 rev/day^2
Epoch rev:           85082
Checksum:              297

Satellite: GOES 7
Catalog number: 17561
Epoch time:      103013.52827387
Element set:     810 
Inclination:        7.5470 deg
RA of node:        55.7264 deg
Eccentricity:    0.0004064
Arg of perigee:   288.6625 deg
Mean anomaly:     149.4031 deg
Mean motion:    1.00317770 rev/day
Decay rate:    1.1600E-006 rev/day^2
Epoch rev:            4138
Checksum:              275

Satellite: COSMOS 1861
Catalog number: 18129
Epoch time:      103027.86235169
Element set:     201 
Inclination:       82.9252 deg
RA of node:       162.6058 deg
Eccentricity:    0.0010567
Arg of perigee:   292.2394 deg
Mean anomaly:      67.7639 deg
Mean motion:   13.72698744 rev/day
Decay rate:    7.9000E-007 rev/day^2
Epoch rev:           78153
Checksum:              342

Satellite: EUTELSAT 1-F4 
Catalog number: 18351
Epoch time:      103025.63835885
Element set:     30 
Inclination:        7.1440 deg
RA of node:        58.7787 deg
Eccentricity:    0.0016805
Arg of perigee:   154.8010 deg
Mean anomaly:     205.3117 deg
Mean motion:    0.98686696 rev/day
Decay rate:    4.1999E-007 rev/day^2
Epoch rev:            4244
Checksum:              322

Satellite: NOAA 11
Catalog number: 19531
Epoch time:      103027.93780192
Element set:     484 
Inclination:       98.9041 deg
RA of node:       109.3896 deg
Eccentricity:    0.0010929
Arg of perigee:   263.7947 deg
Mean anomaly:      96.1981 deg
Mean motion:   14.14527378 rev/day
Decay rate:    2.0600E-006 rev/day^2
Epoch rev:           73974
Checksum:              342

Satellite: ASTRA 1A
Catalog number: 19688
Epoch time:      103027.82698130
Element set:     564 
Inclination:        1.3411 deg
RA of node:        95.0349 deg
Eccentricity:    0.0005149
Arg of perigee:   203.4426 deg
Mean anomaly:     131.0988 deg
Mean motion:    1.00273069 rev/day
Decay rate:    3.0999E-007 rev/day^2
Epoch rev:            3197
Checksum:              408

Satellite: OSCAR 14 (UOSA
Catalog number: 20437
Epoch time:      103027.68677321
Element set:     154 
Inclination:       98.2751 deg
RA of node:        72.3422 deg
Eccentricity:    0.0009970
Arg of perigee:   269.6165 deg
Mean anomaly:      90.3879 deg
Mean motion:   14.31230397 rev/day
Decay rate:    1.3300E-006 rev/day^2
Epoch rev:           67936
Checksum:              321

Satellite: OSCAR 15 (UOSA
Catalog number: 20438
Epoch time:      103027.62050923
Element set:     770 
Inclination:       98.2514 deg
RA of node:        61.4980 deg
Eccentricity:    0.0009163
Arg of perigee:   281.9216 deg
Mean anomaly:      78.0937 deg
Mean motion:   14.30191935 rev/day
Decay rate:    9.0999E-007 rev/day^2
Epoch rev:           67902
Checksum:              332

Satellite: OSCAR 16 (PACS
Catalog number: 20439
Epoch time:      103027.70526013
Element set:     844 
Inclination:       98.3209 deg
RA of node:        83.9152 deg
Eccentricity:    0.0010210
Arg of perigee:   276.6303 deg
Mean anomaly:      83.3710 deg
Mean motion:   14.31462857 rev/day
Decay rate:    1.5599E-006 rev/day^2
Epoch rev:           67940
Checksum:              299

Satellite: OSCAR 17 (DOVE
Catalog number: 20440
Epoch time:      103027.69841859
Element set:     742 
Inclination:       98.3396 deg
RA of node:        87.7500 deg
Eccentricity:    0.0010420
Arg of perigee:   275.5657 deg
Mean anomaly:      84.4333 deg
Mean motion:   14.31740319 rev/day
Decay rate:    1.9100E-006 rev/day^2
Epoch rev:           67947
Checksum:              318

Satellite: OSCAR 18 (WEBE
Catalog number: 20441
Epoch time:      103028.31636400
Element set:     998 
Inclination:       98.3390 deg
RA of node:        87.5702 deg
Eccentricity:    0.0010799
Arg of perigee:   273.1715 deg
Mean anomaly:      86.8233 deg
Mean motion:   14.31545129 rev/day
Decay rate:    1.5599E-006 rev/day^2
Epoch rev:           67954
Checksum:              334

Satellite: OSCAR 19 (LUSA
Catalog number: 20442
Epoch time:      103027.66822468
Element set:     949 
Inclination:       98.3528 deg
RA of node:        89.9331 deg
Eccentricity:    0.0011204
Arg of perigee:   275.4953 deg
Mean anomaly:      84.4945 deg
Mean motion:   14.31707672 rev/day
Decay rate:    1.6599E-006 rev/day^2
Epoch rev:           67950
Checksum:              352

Satellite: JAS 1B (FUJI 2
Catalog number: 20480
Epoch time:      103027.95167192
Element set:     460 
Inclination:       99.0421 deg
RA of node:       354.7642 deg
Eccentricity:    0.0540864
Arg of perigee:    52.8125 deg
Mean anomaly:     312.1098 deg
Mean motion:   12.83328958 rev/day
Decay rate:    6.9999E-008 rev/day^2
Epoch rev:           60774
Checksum:              339

Satellite: HST
Catalog number: 20580
Epoch time:      103027.83971071
Element set:     310 
Inclination:       28.4652 deg
RA of node:       179.2222 deg
Eccentricity:    0.0004160
Arg of perigee:    42.5206 deg
Mean anomaly:      78.4638 deg
Mean motion:   14.97724436 rev/day
Decay rate:    2.2520E-005 rev/day^2
Epoch rev:           49937
Checksum:              289

Satellite: EUTELSAT 2-F1
Catalog number: 20777
Epoch time:      103022.91733966
Element set:     20 
Inclination:        3.4375 deg
RA of node:        84.7981 deg
Eccentricity:    0.0000583
Arg of perigee:   212.5156 deg
Mean anomaly:     230.8178 deg
Mean motion:    1.00271266 rev/day
Decay rate:   -9.5999E-007 rev/day^2
Epoch rev:            2583
Checksum:              424

Satellite: FENGYUN 1B
Catalog number: 20788
Epoch time:      103028.41148635
Element set:     868 
Inclination:       99.0254 deg
RA of node:        10.8031 deg
Eccentricity:    0.0015135
Arg of perigee:   290.4460 deg
Mean anomaly:      69.5082 deg
Mean motion:   14.02138042 rev/day
Decay rate:   -1.3600E-006 rev/day^2
Epoch rev:           63457
Checksum:              280

Satellite: EUTELSAT 2-F2
Catalog number: 21056
Epoch time:      103025.82453705
Element set:     612 
Inclination:        2.6710 deg
RA of node:        88.1797 deg
Eccentricity:    0.0004556
Arg of perigee:   175.8342 deg
Mean anomaly:     205.9804 deg
Mean motion:    1.00268521 rev/day
Decay rate:    1.2100E-006 rev/day^2
Epoch rev:            3164
Checksum:              264

Satellite: INFORMATOR 1
Catalog number: 21087
Epoch time:      103027.94527225
Element set:     595 
Inclination:       82.9444 deg
RA of node:       333.4181 deg
Eccentricity:    0.0034418
Arg of perigee:   313.3258 deg
Mean anomaly:      46.5025 deg
Mean motion:   13.74924185 rev/day
Decay rate:    8.4999E-007 rev/day^2
Epoch rev:           60191
Checksum:              322

Satellite: COSMOS 2123
Catalog number: 21089
Epoch time:      103027.91916706
Element set:     512 
Inclination:       82.9214 deg
RA of node:       197.4356 deg
Eccentricity:    0.0029693
Arg of perigee:   349.7007 deg
Mean anomaly:      10.3535 deg
Mean motion:   13.74401923 rev/day
Decay rate:    6.8999E-007 rev/day^2
Epoch rev:           60081
Checksum:              329

